Location: Unspecified
(49.0500°N, 0.0000°E)
Time: 09:16:56
(UTC+00:00)

OTV 5 (USA 277) - Pass Details

Date: 16 June 2019
Orbit: 299 x 335 km, 54.5° (Epoch: 13 July)

Event Time Altitude Azimuth Distance (km) Brightness Sun altitude
Exits shadow 22:34:51 - 82° (E) 1,731 ? -15.1°
Enters shadow 23:37:01 -54° 238° (WSW) 10,659 ? -17.4°
Maximum altitude 00:05:44 89° 164° (SSE) 338 ? -17.6°
